QPF
0.15 0.12 0.12 0.12 0.20 0.20 0.19 0.13 0.12 0.11 0.10 0.10 0.10 0.09 0.09 0.10 0.12 0.15 0.12 0.06 0.04 0.05 0.06 0.06 0.06 0.07 0.08 0.10 0.12 0.11 0.14 0.12 0.09 0.07 0.06 0.06 0.05 0.04 0.04 0.05 0.06 0.06 0.06
0.19 0.13 0.11 0.12 0.11 0.08 0.07 0.07 0.08 0.08 0.09 0.09 0.10 0.09 0.08 0.10 0.11 0.10 0.10 0.07 0.05 0.04 0.04 0.05 0.06 0.08 0.10 0.11 0.12 0.10 0.11 0.12 0.09 0.07 0.07 0.05 0.06 0.05 0.03 0.03 0.03 0.04 0.04
0.13 0.09 0.08 0.07 0.06 0.05 0.05 0.06 0.07 0.08 0.09 0.10 0.12 0.10 0.08 0.08 0.08 0.08 0.08 0.07 0.07 0.05 0.04 0.04 0.05 0.07 0.08 0.09 0.10 0.12 0.14 0.14 0.10 0.06 0.06 0.05 0.05 0.06 0.05 0.04 0.03 0.04 0.04
0.05 0.05 0.05 0.06 0.05 0.05 0.06 0.07 0.08 0.10 0.13 0.13 0.11 0.09 0.09 0.09 0.06 0.05 0.05 0.05 0.05 0.05 0.05 0.04 0.04 0.04 0.05 0.07 0.08 0.07 0.08 0.12 0.17 0.13 0.09 0.08 0.08 0.07 0.06 0.06 0.05 0.04 0.04
0.03 0.04 0.05 0.04 0.03 0.05 0.06 0.06 0.10 0.12 0.15 0.15 0.13 0.09 0.07 0.08 0.06 0.05 0.04 0.02 0.02 0.02 0.03 0.03 0.03 0.03 0.04 0.06 0.10 0.12 0.08 0.07 0.10 0.16 0.14 0.09 0.09 0.10 0.10 0.07 0.06 0.05 0.05
0.03 0.03 0.03 0.04 0.03 0.04 0.05 0.05 0.07 0.10 0.12 0.13 0.11 0.09 0.06 0.06 0.04 0.03 0.02 0.01 0.01 0.01 0.01 0.02 0.05 0.04 0.05 0.05 0.05 0.04 0.05 0.04 0.06 0.08 0.13 0.14 0.12 0.11 0.12 0.10 0.08 0.06 0.05
0.02 0.02 0.02 0.04 0.04 0.05 0.05 0.05 0.07 0.08 0.08 0.08 0.10 0.08 0.05 0.03 0.03 0.02 0.01 0.01 0.01 0.02 0.02 0.02 0.05 0.06 0.06 0.04 0.04 0.03 0.04 0.04 0.04 0.07 0.08 0.11 0.13 0.13 0.13 0.11 0.09 0.08 0.06
0.01 0.01 0.02 0.04 0.05 0.07 0.08 0.07 0.08 0.06 0.05 0.05 0.08 0.09 0.08 0.05 0.03 0.01 0.01 0.01 0.02 0.02 0.02 0.03 0.02 0.03 0.04 0.05 0.04 0.04 0.04 0.04 0.03 0.05 0.08 0.09 0.12 0.14 0.16 0.14 0.11 0.07 0.05
0.02 0.02 0.02 0.02 0.04 0.06 0.08 0.08 0.08 0.06 0.06 0.05 0.05 0.07 0.09 0.09 0.05 0.03 0.03 0.02 0.02 0.02 0.02 0.03 0.04 0.02 0.03 0.05 0.06 0.05 0.04 0.04 0.05 0.05 0.06 0.07 0.08 0.10 0.12 0.12 0.09 0.07 0.04
0.02 0.02 0.02 0.03 0.04 0.04 0.05 0.04 0.05 0.05 0.06 0.05 0.06 0.06 0.08 0.08 0.07 0.05 0.05 0.03 0.03 0.03 0.02 0.03 0.04 0.04 0.05 0.07 0.11 0.07 0.05 0.04 0.04 0.04 0.06 0.06 0.07 0.09 0.12 0.10 0.07 0.06 0.04
0.03 0.03 0.03 0.05 0.05 0.05 0.04 0.03 0.03 0.03 0.04 0.04 0.06 0.07 0.07 0.07 0.06 0.05 0.04 0.04 0.05 0.06 0.05 0.04 0.05 0.07 0.06 0.05 0.09 0.08 0.06 0.04 0.04 0.03 0.05 0.07 0.07 0.08 0.10 0.11 0.09 0.07 0.05
0.05 0.04 0.05 0.05 0.05 0.05 0.04 0.03 0.03 0.04 0.07 0.07 0.08 0.08 0.08 0.07 0.08 0.07 0.04 0.04 0.05 0.04 0.05 0.07 0.09 0.10 0.09 0.07 0.06 0.06 0.05 0.03 0.02 0.02 0.03 0.04 0.04 0.05 0.06 0.08 0.09 0.08 0.06
0.05 0.06 0.05 0.05 0.05 0.05 0.04 0.04 0.05 0.05 0.06 0.08 0.09 0.10 0.09 0.07 0.06 0.06 0.05 0.04 0.04 0.04 0.04 0.04 0.04 0.04 0.05 0.07 0.07 0.06 0.04 0.03 0.03 0.02 0.02 0.02 0.02 0.03 0.04 0.05 0.06 0.06 0.06
0.05 0.05 0.05 0.04 0.04 0.04 0.04 0.05 0.05 0.06 0.08 0.09 0.07 0.08 0.08 0.08 0.07 0.06 0.06 0.06 0.07 0.07 0.07 0.07 0.05 0.04 0.05 0.05 0.05 0.05 0.03 0.03 0.03 0.02 0.01 0.01 0.01 0.02 0.04 0.04 0.04 0.04 0.04
0.04 0.03 0.03 0.03 0.03 0.04 0.04 0.05 0.05 0.05 0.06 0.06 0.07 0.07 0.08 0.07 0.07 0.08 0.08 0.08 0.09 0.09 0.08 0.09 0.08 0.05 0.05 0.04 0.03 0.02 0.02 0.02 0.01 0.01 0.01 0.01 0.01 0.02 0.02 0.03 0.03 0.03 0.03
0.02 0.01 0.02 0.02 0.04 0.04 0.04 0.04 0.04 0.04 0.04 0.05 0.05 0.05 0.06 0.07 0.08 0.08 0.09 0.07 0.07 0.07 0.06 0.06 0.07 0.04 0.03 0.02 0.02 0.02 0.02 0.01 0.01 0.01 0.00 0.00 0.01 0.02 0.01 0.01 0.01 0.02 0.03
0.03 0.02 0.02 0.03 0.03 0.04 0.04 0.04 0.04 0.04 0.04 0.04 0.05 0.05 0.06 0.07 0.08 0.07 0.09 0.09 0.09 0.10 0.06 0.05 0.05 0.05 0.05 0.03 0.03 0.03 0.03 0.02 0.01 0.01 0.01 0.01 0.02 0.01 0.01 0.01 0.01 0.01 0.01
0.02 0.02 0.03 0.04 0.04 0.04 0.05 0.04 0.03 0.04 0.04 0.04 0.05 0.05 0.06 0.07 0.09 0.08 0.08 0.09 0.10 0.09 0.06 0.04 0.04 0.05 0.07 0.08 0.04 0.03 0.02 0.01 0.01 0.01 0.01 0.01 0.02 0.02 0.01 0.01 0.01 0.01 0.01
0.02 0.01 0.02 0.03 0.03 0.04 0.05 0.05 0.05 0.04 0.03 0.03 0.04 0.05 0.04 0.05 0.07 0.07 0.08 0.08 0.08 0.06 0.06 0.05 0.05 0.06 0.06 0.06 0.05 0.04 0.03 0.02 0.01 0.01 0.02 0.01 0.01 0.01 0.01 0.01 0.01 0.00 0.01
0.02 0.02 0.02 0.03 0.03 0.03 0.04 0.06 0.06 0.04 0.04 0.03 0.02 0.03 0.03 0.03 0.04 0.05 0.06 0.08 0.07 0.07 0.07 0.07 0.07 0.07 0.07 0.07 0.08 0.07 0.06 0.04 0.03 0.02 0.01 0.01 0.01 0.01 0.01 0.01 0.01 0.01 0.01
0.01 0.01 0.02 0.02 0.03 0.02 0.02 0.04 0.04 0.03 0.04 0.04 0.03 0.03 0.02 0.02 0.02 0.04 0.04 0.06 0.06 0.07 0.07 0.08 0.08 0.08 0.08 0.09 0.09 0.08 0.07 0.05 0.04 0.03 0.02 0.01 0.00 0.00 0.01 0.01 0.01 0.01 0.01
0.02 0.02 0.02 0.02 0.02 0.02 0.02 0.03 0.02 0.02 0.02 0.03 0.03 0.03 0.02 0.01 0.02 0.03 0.03 0.04 0.06 0.06 0.07 0.08 0.08 0.07 0.07 0.07 0.07 0.06 0.06 0.07 0.05 0.04 0.04 0.03 0.01 0.02 0.01 0.01 0.01 0.01 0.01
0.03 0.03 0.03 0.03 0.03 0.03 0.03 0.02 0.02 0.02 0.02 0.02 0.02 0.03 0.02 0.01 0.01 0.02 0.02 0.03 0.04 0.05 0.05 0.06 0.06 0.05 0.06 0.06 0.08 0.06 0.06 0.07 0.07 0.05 0.06 0.04 0.03 0.03 0.01 0.02 0.02 0.01 0.01
0.03 0.04 0.04 0.04 0.04 0.03 0.02 0.01 0.01 0.01 0.01 0.01 0.02 0.02 0.01 0.01 0.01 0.01 0.01 0.02 0.03 0.03 0.04 0.04 0.04 0.04 0.04 0.05 0.06 0.06 0.07 0.08 0.07 0.05 0.07 0.04 0.03 0.03 0.02 0.01 0.02 0.02 0.02
0.04 0.03 0.03 0.04 0.03 0.02 0.02 0.01 0.01 0.01 0.01 0.01 0.01 0.01 0.01 0.01 0.01 0.01 0.01 0.02 0.03 0.03 0.04 0.05 0.05 0.04 0.03 0.03 0.04 0.05 0.05 0.06 0.05 0.05 0.07 0.06 0.04 0.04 0.04 0.04 0.04 0.04 0.02
0.06 0.04 0.04 0.03 0.02 0.02 0.02 0.02 0.02 0.02 0.02 0.02 0.02 0.02 0.01 0.01 0.01 0.01 0.01 0.02 0.02 0.02 0.02 0.03 0.04 0.04 0.04 0.04 0.04 0.05 0.06 0.07 0.06 0.05 0.06 0.07 0.06 0.06 0.04 0.03 0.04 0.05 0.04
MSLP
1006.11 1005.73 1005.29 1004.83 1004.40 1004.03 1003.72 1003.46 1003.22 1002.99 1002.75 1002.50 1002.26 1002.06 1001.91 1001.85 1001.88 1002.00 1002.19 1002.43 1002.69 1002.96 1003.23 1003.48 1003.72 1003.95 1004.17 1004.39 1004.62 1004.89 1005.22 1005.64 1006.17 1006.84 1007.63 1008.53 1009.48 1010.44 1011.34 1012.13 1012.79 1013.34 1013.79
1006.69 1006.35 1005.93 1005.49 1005.05 1004.64 1004.28 1003.96 1003.66 1003.38 1003.10 1002.82 1002.56 1002.34 1002.17 1002.09 1002.09 1002.18 1002.35 1002.59 1002.88 1003.19 1003.52 1003.84 1004.15 1004.43 1004.69 1004.92 1005.14 1005.38 1005.67 1006.05 1006.54 1007.16 1007.91 1008.77 1009.68 1010.58 1011.43 1012.18 1012.80 1013.31 1013.75
1007.14 1006.85 1006.49 1006.09 1005.67 1005.27 1004.89 1004.53 1004.19 1003.86 1003.55 1003.24 1002.97 1002.73 1002.54 1002.42 1002.38 1002.42 1002.53 1002.72 1002.97 1003.27 1003.60 1003.94 1004.28 1004.61 1004.91 1005.18 1005.43 1005.70 1006.00 1006.37 1006.86 1007.47 1008.19 1009.00 1009.87 1010.72 1011.52 1012.22 1012.81 1013.30 1013.73
1007.43 1007.21 1006.92 1006.59 1006.24 1005.86 1005.49 1005.12 1004.76 1004.40 1004.06 1003.75 1003.46 1003.21 1003.00 1002.85 1002.75 1002.72 1002.75 1002.84 1003.00 1003.22 1003.49 1003.80 1004.14 1004.48 1004.81 1005.14 1005.45 1005.77 1006.12 1006.53 1007.04 1007.65 1008.36 1009.15 1009.97 1010.78 1011.54 1012.21 1012.78 1013.27 1013.70
1007.60 1007.44 1007.24 1007.00 1006.72 1006.40 1006.06 1005.70 1005.33 1004.97 1004.62 1004.30 1004.01 1003.76 1003.54 1003.36 1003.21 1003.10 1003.03 1003.00 1003.03 1003.13 1003.29 1003.52 1003.80 1004.13 1004.48 1004.84 1005.22 1005.60 1006.02 1006.50 1007.04 1007.67 1008.38 1009.15 1009.94 1010.71 1011.44 1012.09 1012.66 1013.16 1013.62
1007.70 1007.61 1007.49 1007.34 1007.14 1006.89 1006.59 1006.26 1005.90 1005.54 1005.20 1004.89 1004.61 1004.37 1004.16 1003.97 1003.79 1003.60 1003.43 1003.28 1003.17 1003.11 1003.14 1003.24 1003.44 1003.71 1004.05 1004.43 1004.84 1005.29 1005.77 1006.30 1006.88 1007.53 1008.24 1008.99 1009.75 1010.50 1011.21 1011.86 1012.44 1012.97 1013.46
1007.83 1007.78 1007.73 1007.65 1007.53 1007.34 1007.09 1006.79 1006.45 1006.10 1005.78 1005.49 1005.24 1005.04 1004.85 1004.67 1004.47 1004.25 1004.00 1003.73 1003.49 1003.28 1003.15 1003.12 1003.20 1003.39 1003.67 1004.03 1004.46 1004.93 1005.45 1006.01 1006.62 1007.27 1007.97 1008.69 1009.43 1010.16 1010.85 1011.50 1012.11 1012.67 1013.21
1008.01 1007.99 1007.99 1007.97 1007.91 1007.78 1007.57 1007.30 1006.98 1006.66 1006.36 1006.10 1005.89 1005.73 1005.59 1005.44 1005.26 1005.02 1004.73 1004.39 1004.03 1003.70 1003.43 1003.25 1003.20 1003.28 1003.49 1003.80 1004.19 1004.66 1005.17 1005.73 1006.34 1006.97 1007.64 1008.33 1009.03 1009.73 1010.41 1011.06 1011.68 1012.28 1012.86
1008.27 1008.27 1008.30 1008.33 1008.31 1008.21 1008.04 1007.79 1007.50 1007.19 1006.92 1006.69 1006.53 1006.42 1006.34 1006.24 1006.10 1005.88 1005.57 1005.19 1004.77 1004.34 1003.96 1003.66 1003.49 1003.46 1003.56 1003.79 1004.13 1004.54 1005.02 1005.54 1006.10 1006.69 1007.31 1007.95 1008.60 1009.26 1009.91 1010.56 1011.20 1011.82 1012.44
1008.58 1008.58 1008.63 1008.68 1008.68 1008.62 1008.47 1008.24 1007.97 1007.68 1007.43 1007.23 1007.11 1007.05 1007.03 1006.99 1006.90 1006.72 1006.44 1006.06 1005.60 1005.12 1004.67 1004.28 1004.01 1003.87 1003.88 1004.01 1004.26 1004.60 1005.01 1005.46 1005.95 1006.48 1007.03 1007.60 1008.19 1008.80 1009.42 1010.05 1010.68 1011.32 1011.96
1008.86 1008.87 1008.92 1008.98 1009.00 1008.96 1008.82 1008.61 1008.35 1008.08 1007.85 1007.68 1007.59 1007.57 1007.59 1007.60 1007.56 1007.44 1007.19 1006.84 1006.40 1005.91 1005.42 1004.98 1004.63 1004.42 1004.33 1004.38 1004.53 1004.78 1005.10 1005.47 1005.88 1006.32 1006.79 1007.29 1007.82 1008.38 1008.95 1009.55 1010.17 1010.80 1011.44
1009.05 1009.06 1009.12 1009.18 1009.21 1009.17 1009.06 1008.86 1008.62 1008.36 1008.14 1007.99 1007.92 1007.91 1007.96 1008.01 1008.01 1007.93 1007.73 1007.42 1007.01 1006.54 1006.05 1005.60 1005.22 1004.95 1004.80 1004.76 1004.83 1004.99 1005.22 1005.50 1005.83 1006.19 1006.58 1007.01 1007.48 1007.98 1008.52 1009.08 1009.67 1010.28 1010.90
1009.10 1009.11 1009.17 1009.24 1009.27 1009.25 1009.15 1008.97 1008.74 1008.50 1008.29 1008.14 1008.07 1008.07 1008.12 1008.18 1008.20 1008.15 1007.99 1007.72 1007.36 1006.93 1006.47 1006.03 1005.65 1005.35 1005.15 1005.06 1005.06 1005.14 1005.29 1005.49 1005.74 1006.03 1006.36 1006.74 1007.15 1007.61 1008.11 1008.64 1009.19 1009.77 1010.37
1009.02 1009.03 1009.09 1009.15 1009.19 1009.18 1009.09 1008.94 1008.73 1008.51 1008.31 1008.16 1008.08 1008.06 1008.09 1008.13 1008.15 1008.10 1007.97 1007.74 1007.42 1007.03 1006.62 1006.21 1005.85 1005.55 1005.33 1005.20 1005.15 1005.17 1005.25 1005.39 1005.57 1005.81 1006.09 1006.42 1006.81 1007.23 1007.70 1008.20 1008.73 1009.27 1009.84
1008.85 1008.85 1008.90 1008.96 1009.01 1009.00 1008.94 1008.81 1008.63 1008.42 1008.23 1008.08 1007.98 1007.93 1007.93 1007.94 1007.93 1007.87 1007.73 1007.52 1007.24 1006.90 1006.53 1006.17 1005.83 1005.55 1005.33 1005.17 1005.08 1005.06 1005.09 1005.17 1005.31 1005.51 1005.76 1006.06 1006.42 1006.83 1007.28 1007.76 1008.26 1008.78 1009.31
1008.63 1008.63 1008.67 1008.73 1008.77 1008.78 1008.73 1008.63 1008.47 1008.29 1008.11 1007.96 1007.84 1007.76 1007.72 1007.68 1007.63 1007.54 1007.40 1007.20 1006.94 1006.63 1006.31 1005.99 1005.68 1005.41 1005.19 1005.02 1004.90 1004.84 1004.82 1004.87 1004.97 1005.13 1005.36 1005.65 1005.99 1006.39 1006.83 1007.30 1007.78 1008.28 1008.78
1008.44 1008.43 1008.47 1008.51 1008.56 1008.57 1008.54 1008.45 1008.33 1008.17 1008.01 1007.85 1007.73 1007.62 1007.54 1007.46 1007.37 1007.24 1007.08 1006.87 1006.63 1006.35 1006.06 1005.77 1005.49 1005.24 1005.02 1004.84 1004.69 1004.58 1004.53 1004.53 1004.59 1004.72 1004.92 1005.20 1005.53 1005.92 1006.35 1006.81 1007.28 1007.76 1008.24
1008.30 1008.29 1008.32 1008.36 1008.40 1008.41 1008.39 1008.32 1008.22 1008.09 1007.94 1007.80 1007.67 1007.54 1007.43 1007.32 1007.19 1007.04 1006.86 1006.64 1006.41 1006.15 1005.89 1005.62 1005.37 1005.12 1004.90 1004.69 1004.51 1004.37 1004.26 1004.21 1004.23 1004.32 1004.49 1004.74 1005.06 1005.44 1005.86 1006.31 1006.77 1007.23 1007.70
1008.21 1008.21 1008.23 1008.27 1008.30 1008.31 1008.29 1008.23 1008.15 1008.03 1007.91 1007.78 1007.65 1007.52 1007.39 1007.25 1007.10 1006.93 1006.74 1006.53 1006.30 1006.07 1005.82 1005.58 1005.34 1005.11 1004.87 1004.64 1004.43 1004.23 1004.07 1003.97 1003.93 1003.97 1004.10 1004.31 1004.61 1004.96 1005.37 1005.80 1006.25 1006.70 1007.16
1008.13 1008.15 1008.18 1008.21 1008.23 1008.23 1008.20 1008.15 1008.07 1007.97 1007.86 1007.74 1007.62 1007.50 1007.36 1007.22 1007.06 1006.89 1006.70 1006.50 1006.28 1006.07 1005.85 1005.63 1005.41 1005.17 1004.93 1004.68 1004.43 1004.19 1003.97 1003.80 1003.70 1003.69 1003.76 1003.93 1004.19 1004.52 1004.90 1005.31 1005.74 1006.19 1006.64
1008.02 1008.06 1008.09 1008.12 1008.13 1008.12 1008.08 1008.02 1007.94 1007.84 1007.74 1007.64 1007.53 1007.41 1007.29 1007.15 1007.00 1006.83 1006.65 1006.46 1006.27 1006.08 1005.89 1005.70 1005.49 1005.27 1005.03 1004.76 1004.48 1004.19 1003.93 1003.70 1003.54 1003.47 1003.49 1003.61 1003.83 1004.12 1004.47 1004.87 1005.29 1005.72 1006.17
1007.82 1007.89 1007.94 1007.97 1007.96 1007.93 1007.88 1007.80 1007.71 1007.61 1007.52 1007.42 1007.32 1007.21 1007.10 1006.97 1006.83 1006.67 1006.51 1006.34 1006.17 1006.02 1005.86 1005.69 1005.52 1005.31 1005.07 1004.80 1004.50 1004.19 1003.89 1003.62 1003.41 1003.29 1003.27 1003.35 1003.52 1003.79 1004.12 1004.50 1004.91 1005.34 1005.79
1007.53 1007.62 1007.68 1007.71 1007.69 1007.64 1007.57 1007.47 1007.37 1007.27 1007.17 1007.08 1006.98 1006.89 1006.78 1006.66 1006.52 1006.37 1006.22 1006.08 1005.94 1005.81 1005.68 1005.55 1005.40 1005.22 1005.00 1004.74 1004.45 1004.13 1003.81 1003.51 1003.28 1003.13 1003.07 1003.12 1003.27 1003.52 1003.84 1004.21 1004.62 1005.06 1005.51
1007.14 1007.25 1007.31 1007.33 1007.30 1007.24 1007.15 1007.04 1006.93 1006.82 1006.72 1006.63 1006.55 1006.45 1006.35 1006.23 1006.09 1005.95 1005.81 1005.67 1005.55 1005.43 1005.33 1005.23 1005.11 1004.96 1004.77 1004.53 1004.26 1003.95 1003.63 1003.34 1003.10 1002.94 1002.88 1002.92 1003.07 1003.32 1003.63 1004.01 1004.43 1004.88 1005.35
1006.67 1006.78 1006.84 1006.84 1006.81 1006.73 1006.63 1006.52 1006.41 1006.31 1006.23 1006.15 1006.07 1005.98 1005.88 1005.75 1005.61 1005.46 1005.31 1005.17 1005.05 1004.94 1004.85 1004.77 1004.67 1004.55 1004.39 1004.19 1003.93 1003.65 1003.36 1003.09 1002.87 1002.73 1002.68 1002.74 1002.91 1003.17 1003.51 1003.90 1004.34 1004.81 1005.29
1006.13 1006.21 1006.25 1006.25 1006.20 1006.13 1006.04 1005.95 1005.86 1005.79 1005.73 1005.67 1005.61 1005.53 1005.43 1005.30 1005.15 1004.98 1004.81 1004.65 1004.51 1004.40 1004.31 1004.23 1004.15 1004.05 1003.92 1003.74 1003.53 1003.28 1003.03 1002.79 1002.60 1002.49 1002.48 1002.57 1002.77 1003.06 1003.43 1003.86 1004.32 1004.81 1005.31
Thickness
5781 5781 5779 5779 5777 5776 5775 5774 5773 5772 5771 5770 5770 5769 5769 5768 5766 5765 5763 5761 5760 5758 5757 5755 5754 5753 5751 5750 5749 5748 5747 5746 5745 5744 5742 5741 5740 5738 5737 5737 5736 5735 5734
5781 5779 5778 5777 5777 5776 5775 5774 5773 5772 5771 5770 5768 5769 5768 5768 5766 5765 5763 5761 5760 5758 5757 5755 5754 5753 5751 5750 5748 5747 5747 5746 5745 5743 5741 5740 5739 5738 5737 5736 5735 5734 5733
5781 5780 5778 5777 5776 5776 5775 5774 5773 5772 5771 5770 5769 5769 5768 5768 5767 5766 5764 5762 5760 5758 5757 5755 5754 5753 5751 5749 5748 5747 5747 5745 5744 5742 5741 5739 5738 5737 5736 5735 5734 5732 5731
5782 5780 5779 5777 5776 5776 5775 5773 5771 5770 5769 5768 5768 5769 5768 5768 5768 5767 5765 5764 5762 5760 5758 5756 5754 5752 5751 5749 5747 5746 5745 5744 5742 5740 5739 5739 5737 5736 5735 5733 5732 5731 5730
5782 5781 5779 5777 5777 5775 5774 5773 5770 5769 5767 5767 5767 5768 5769 5768 5768 5768 5766 5765 5764 5762 5759 5757 5754 5752 5750 5748 5747 5745 5744 5742 5741 5739 5738 5738 5737 5735 5733 5732 5730 5729 5728
5782 5781 5779 5777 5776 5774 5772 5771 5768 5769 5768 5767 5768 5768 5768 5769 5769 5768 5767 5766 5765 5763 5760 5757 5754 5752 5749 5748 5746 5744 5743 5741 5739 5738 5738 5737 5736 5734 5732 5731 5729 5727 5726
5783 5781 5779 5777 5775 5772 5771 5769 5768 5766 5766 5767 5764 5762 5765 5768 5768 5767 5767 5765 5763 5762 5760 5758 5755 5752 5749 5747 5745 5743 5741 5740 5739 5738 5737 5736 5735 5733 5732 5730 5728 5726 5725
5783 5782 5778 5776 5774 5771 5769 5768 5767 5764 5765 5766 5761 5756 5753 5755 5761 5767 5765 5763 5761 5761 5759 5757 5755 5753 5749 5747 5744 5742 5740 5739 5737 5736 5736 5735 5734 5732 5731 5728 5727 5725 5723
5783 5781 5778 5777 5775 5772 5769 5768 5766 5764 5761 5763 5765 5757 5748 5744 5750 5758 5760 5761 5760 5758 5758 5756 5753 5752 5749 5746 5743 5740 5738 5736 5735 5734 5733 5733 5731 5730 5729 5727 5725 5723 5721
5783 5781 5778 5776 5774 5773 5770 5768 5768 5766 5763 5759 5761 5762 5759 5755 5746 5745 5752 5757 5758 5756 5755 5754 5751 5750 5747 5745 5742 5739 5736 5734 5732 5731 5730 5729 5728 5727 5726 5725 5722 5721 5719
5782 5780 5778 5776 5773 5772 5770 5768 5767 5765 5763 5760 5758 5758 5757 5756 5753 5745 5741 5746 5750 5753 5753 5752 5750 5748 5746 5742 5739 5737 5735 5732 5729 5727 5726 5725 5724 5722 5722 5721 5719 5718 5717
5781 5779 5778 5776 5773 5771 5769 5768 5766 5764 5762 5760 5758 5757 5754 5750 5747 5745 5740 5739 5741 5746 5750 5749 5748 5746 5744 5740 5738 5734 5732 5729 5726 5724 5722 5721 5719 5718 5717 5716 5715 5714 5713
5778 5777 5777 5774 5772 5771 5769 5767 5765 5762 5761 5758 5756 5755 5754 5752 5750 5746 5740 5738 5738 5741 5744 5745 5745 5743 5741 5738 5735 5732 5728 5725 5722 5720 5718 5717 5715 5714 5712 5712 5710 5709 5708
5778 5777 5775 5773 5771 5769 5768 5765 5763 5761 5759 5757 5756 5754 5752 5751 5749 5746 5741 5736 5731 5732 5735 5737 5740 5739 5737 5735 5732 5729 5725 5722 5719 5717 5714 5713 5711 5709 5708 5707 5706 5705 5704
5777 5774 5773 5771 5769 5767 5765 5762 5759 5758 5756 5754 5752 5751 5748 5748 5747 5745 5742 5738 5729 5722 5724 5730 5731 5734 5733 5730 5727 5724 5721 5718 5716 5713 5711 5709 5707 5706 5704 5703 5701 5701 5699
5772 5770 5769 5767 5766 5764 5762 5759 5756 5755 5753 5750 5749 5746 5744 5743 5742 5741 5738 5736 5732 5725 5720 5726 5727 5728 5727 5725 5722 5720 5718 5715 5712 5710 5707 5705 5703 5701 5699 5698 5697 5696 5695
5768 5766 5764 5763 5761 5759 5758 5755 5753 5751 5748 5746 5745 5743 5740 5738 5736 5734 5733 5731 5728 5724 5717 5721 5723 5723 5721 5719 5716 5715 5713 5711 5708 5706 5704 5702 5699 5697 5695 5693 5692 5691 5690
5764 5762 5761 5758 5756 5755 5753 5750 5748 5746 5743 5740 5739 5737 5734 5733 5730 5728 5726 5724 5721 5720 5715 5712 5715 5715 5713 5712 5710 5708 5708 5707 5705 5702 5700 5698 5695 5693 5691 5689 5687 5686 5684
5760 5758 5756 5753 5751 5749 5748 5746 5743 5741 5738 5736 5733 5730 5728 5726 5723 5721 5719 5716 5715 5714 5711 5707 5707 5708 5707 5707 5704 5703 5702 5701 5701 5698 5695 5692 5690 5688 5686 5684 5682 5681 5679
5756 5753 5751 5749 5747 5744 5742 5740 5738 5735 5732 5730 5728 5726 5723 5720 5716 5715 5713 5709 5708 5705 5703 5700 5699 5699 5698 5699 5697 5694 5692 5693 5693 5693 5690 5687 5685 5683 5681 5680 5678 5676 5675
5752 5749 5746 5743 5741 5739 5736 5733 5731 5729 5726 5723 5721 5719 5716 5714 5711 5708 5706 5702 5700 5696 5694 5692 5691 5690 5688 5687 5686 5686 5683 5684 5685 5685 5682 5681 5679 5677 5676 5675 5673 5672 5671
5746 5743 5739 5736 5734 5732 5728 5726 5723 5721 5719 5715 5713 5711 5710 5707 5704 5702 5699 5696 5693 5690 5687 5684 5683 5681 5680 5679 5678 5677 5676 5674 5673 5678 5676 5675 5674 5672 5672 5671 5670 5668 5667
5739 5736 5732 5729 5725 5722 5720 5717 5715 5713 5711 5709 5706 5704 5703 5701 5698 5695 5693 5691 5688 5686 5683 5680 5676 5675 5674 5674 5671 5668 5668 5667 5667 5671 5668 5666 5667 5666 5667 5668 5666 5664 5662
5731 5727 5724 5721 5718 5715 5712 5709 5707 5706 5704 5702 5700 5697 5694 5691 5690 5686 5685 5683 5681 5680 5678 5676 5673 5672 5671 5669 5666 5663 5661 5662 5664 5665 5664 5659 5660 5660 5661 5661 5661 5659 5657
5724 5721 5718 5715 5711 5708 5705 5702 5699 5699 5697 5695 5693 5690 5688 5684 5681 5679 5676 5674 5673 5672 5672 5671 5669 5667 5665 5663 5660 5657 5655 5653 5653 5656 5658 5654 5654 5653 5654 5654 5654 5653 5651
5717 5714 5711 5708 5705 5702 5699 5696 5693 5692 5690 5688 5686 5684 5680 5677 5674 5671 5668 5666 5664 5663 5663 5663 5662 5661 5660 5658 5655 5651 5650 5647 5647 5647 5651 5649 5648 5647 5645 5648 5648 5646 5644